| time (UTC) | temp F | wind direction | speed MPH | gust MPH | rain 1hr in | rain 24hr in | rain mn in | humidity % | barometer mb |
| 20260505035500 | 73 | 169 | 11.0 | 13.0 | 0.00 | 0.00 | 0.00 | 75 | 1005.4 |
| 20260505035000 | 73 | 180 | 8.0 | 14.0 | 0.00 | 0.00 | 0.00 | 75 | 1005.4 |
| 20260505034500 | 73 | 165 | 9.0 | 15.0 | 0.00 | 0.00 | 0.00 | 74 | 1005.5 |
| 20260505033500 | 74 | 177 | 13.0 | 17.0 | 0.00 | 0.00 | 0.00 | 74 | 1005.3 |
| 20260505033000 | 74 | 166 | 13.0 | 18.0 | 0.00 | 0.00 | 0.00 | 73 | 1005.3 |
| 20260505032531 | 74 | 183 | 11.0 | 20.0 | 0.00 | 0.00 | 0.00 | 73 | 1005.2 |
| 20260505032000 | 74 | 160 | 12.0 | 20.0 | 0.00 | 0.00 | 0.00 | 73 | 1005.2 |
| 20260505031502 | 74 | 154 | 16.0 | 19.0 | 0.00 | 0.00 | 0.00 | 73 | 1005.2 |
| 20260505031000 | 73 | 166 | 10.0 | 17.0 | 0.00 | 0.00 | 0.00 | 74 | 1005.2 |
| 20260505030500 | 73 | 0 | 0.0 | 17.0 | 0.00 | 0.00 | 0.00 | 74 | 1005.4 |
| 20260505025500 | 73 | 158 | 13.0 | 13.0 | 0.00 | 0.00 | 0.00 | 74 | 1005.5 |
| 20260505025000 | 73 | 162 | 9.0 | 13.0 | 0.00 | 0.00 | 0.00 | 75 | 1005.5 |
| 20260505024501 | 73 | 145 | 11.0 | 15.0 | 0.00 | 0.00 | 0.00 | 75 | 1005.5 |
| 20260505024000 | 73 | 0 | 0.0 | 15.0 | 0.00 | 0.00 | 0.00 | 74 | 1005.5 |
| 20260505023500 | 73 | 0 | 0.0 | 14.0 | 0.00 | 0.00 | 0.00 | 74 | 1005.5 |
| 20260505023001 | 73 | 0 | 0.0 | 14.0 | 0.00 | 0.00 | 0.00 | 74 | 1005.4 |
| 20260505022500 | 73 | 0 | 0.0 | 15.0 | 0.00 | 0.00 | 0.00 | 74 | 1005.4 |
| 20260505022000 | 73 | 159 | 15.0 | 17.0 | 0.00 | 0.00 | 0.00 | 74 | 1005.4 |
| 20260505021000 | 73 | 0 | 0.0 | 14.0 | 0.00 | 0.00 | 0.00 | 74 | 1005.5 |
| 20260505020500 | 73 | 0 | 0.0 | 12.0 | 0.00 | 0.00 | 0.00 | 74 | 1005.6 |
| 20260505020000 | 74 | 155 | 11.0 | 13.0 | 0.00 | 0.00 | 0.00 | 73 | 1005.6 |
| 20260505015000 | 74 | 0 | 0.0 | 15.0 | 0.00 | 0.00 | 0.00 | 72 | 1005.3 |
| 20260505014500 | 74 | 0 | 0.0 | 15.0 | 0.00 | 0.00 | 0.00 | 71 | 1005.2 |
| 20260505014000 | 75 | 162 | 10.0 | 15.0 | 0.00 | 0.00 | 0.00 | 71 | 1005.3 |
| 20260505013500 | 75 | 175 | 11.0 | 15.0 | 0.00 | 0.00 | 0.00 | 71 | 1005.2 |
| 20260505013000 | 75 | 166 | 8.0 | 13.0 | 0.00 | 0.00 | 0.00 | 71 | 1005.3 |
| 20260505012501 | 75 | 171 | 10.0 | 15.0 | 0.00 | 0.00 | 0.00 | 70 | 1005.2 |
| 20260505012001 | 75 | 165 | 11.0 | 15.0 | 0.00 | 0.00 | 0.00 | 70 | 1005.2 |
| 20260505011500 | 75 | 171 | 9.0 | 13.0 | 0.00 | 0.00 | 0.00 | 69 | 1005.3 |
| 20260505011000 | 75 | 169 | 12.0 | 13.0 | 0.00 | 0.00 | 0.00 | 69 | 1005.3 |
| 20260505010500 | 75 | 171 | 11.0 | 15.0 | 0.00 | 0.00 | 0.00 | 68 | 1005.3 |
| 20260505010000 | 76 | 163 | 11.0 | 15.0 | 0.00 | 0.00 | 0.00 | 68 | 1005.3 |
| 20260505005001 | 76 | 177 | 11.0 | 17.0 | 0.00 | 0.00 | 0.00 | 66 | 1005.4 |
| 20260505004001 | 77 | 190 | 10.0 | 14.0 | 0.00 | 0.00 | 0.00 | 65 | 1005.4 |
| 20260505003500 | 77 | 175 | 10.0 | 15.0 | 0.00 | 0.00 | 0.00 | 64 | 1005.4 |
| 20260505003000 | 77 | 180 | 11.0 | 15.0 | 0.00 | 0.00 | 0.00 | 63 | 1005.4 |
| 20260505002000 | 78 | 179 | 8.0 | 15.0 | 0.00 | 0.00 | 0.00 | 63 | 1005.3 |
| 20260505001500 | 78 | 207 | 11.0 | 17.0 | 0.00 | 0.00 | 0.00 | 62 | 1005.4 |
| 20260505001000 | 78 | 170 | 14.0 | 17.0 | 0.00 | 0.00 | 0.00 | 61 | 1005.4 |
| 20260505000500 | 78 | 183 | 13.0 | 17.0 | 0.00 | 0.00 | 0.00 | 61 | 1005.4 |
| 20260505000000 | 78 | 180 | 15.0 | 19.0 | 0.00 | 0.00 | 0.00 | 60 | 1005.4 |
| 20260504235500 | 79 | 176 | 17.0 | 19.0 | 0.00 | 0.00 | 0.00 | 59 | 1005.5 |
| 20260504235000 | 79 | 205 | 15.0 | 22.0 | 0.00 | 0.00 | 0.00 | 59 | 1005.4 |
| 20260504234500 | 79 | 181 | 14.0 | 22.0 | 0.00 | 0.00 | 0.00 | 59 | 1005.3 |
| 20260504234000 | 79 | 187 | 13.0 | 20.0 | 0.00 | 0.00 | 0.00 | 59 | 1005.5 |
| 20260504233501 | 79 | 183 | 13.0 | 19.0 | 0.00 | 0.00 | 0.00 | 59 | 1005.5 |
| 20260504233000 | 79 | 192 | 11.0 | 20.0 | 0.00 | 0.00 | 0.00 | 59 | 1005.7 |
| 20260504232500 | 79 | 199 | 17.0 | 20.0 | 0.00 | 0.00 | 0.00 | 58 | 1005.6 |
| 20260504231531 | 80 | 182 | 13.0 | 22.0 | 0.00 | 0.00 | 0.00 | 59 | 1005.6 |
| 20260504230500 | 80 | 180 | 16.0 | 19.0 | 0.00 | 0.00 | 0.00 | 57 | 1005.4 |
| 20260504230000 | 80 | 183 | 12.0 | 21.0 | 0.00 | 0.00 | 0.00 | 57 | 1005.6 |
| 20260504225500 | 80 | 192 | 12.0 | 28.0 | 0.00 | 0.00 | 0.00 | 57 | 1005.7 |
| 20260504224500 | 82 | 199 | 18.0 | 23.0 | 0.00 | 0.00 | 0.00 | 55 | 1005.8 |
| 20260504224000 | 81 | 196 | 15.0 | 24.0 | 0.00 | 0.00 | 0.00 | 55 | 1005.7 |
| 20260504223501 | 82 | 203 | 22.0 | 24.0 | 0.00 | 0.00 | 0.00 | 54 | 1005.7 |
| 20260504223000 | 82 | 190 | 15.0 | 23.0 | 0.00 | 0.00 | 0.00 | 55 | 1005.9 |
| 20260504222500 | 81 | 193 | 14.0 | 23.0 | 0.00 | 0.00 | 0.00 | 54 | 1005.9 |
| 20260504222000 | 81 | 198 | 14.0 | 25.0 | 0.00 | 0.00 | 0.00 | 55 | 1006.1 |
| 20260504221500 | 81 | 188 | 17.0 | 25.0 | 0.00 | 0.00 | 0.00 | 54 | 1005.9 |
| 20260504221000 | 82 | 187 | 17.0 | 25.0 | 0.00 | 0.00 | 0.00 | 54 | 1005.9 |
| 20260504220030 | 82 | 172 | 18.0 | 22.0 | 0.00 | 0.00 | 0.00 | 54 | 1006.1 |
| 20260504215500 | 82 | 194 | 17.0 | 22.0 | 0.00 | 0.00 | 0.00 | 53 | 1006.0 |
| 20260504215000 | 82 | 197 | 20.0 | 23.0 | 0.00 | 0.00 | 0.00 | 53 | 1006.1 |
| 20260504214500 | 81 | 161 | 21.0 | 25.0 | 0.00 | 0.00 | 0.00 | 53 | 1006.1 |
| 20260504214000 | 82 | 178 | 25.0 | 25.0 | 0.00 | 0.00 | 0.00 | 53 | 1006.1 |
| 20260504213530 | 82 | 171 | 11.0 | 21.0 | 0.00 | 0.00 | 0.00 | 55 | 1006.5 |
| 20260504213000 | 82 | 177 | 21.0 | 21.0 | 0.00 | 0.00 | 0.00 | 54 | 1006.4 |
| 20260504212500 | 81 | 189 | 12.0 | 21.0 | 0.00 | 0.00 | 0.00 | 55 | 1006.7 |
| 20260504212000 | 81 | 180 | 15.0 | 21.0 | 0.00 | 0.00 | 0.00 | 55 | 1006.8 |
| 20260504210500 | 80 | 206 | 16.0 | 22.0 | 0.00 | 0.00 | 0.00 | 55 | 1007.0 |
| 20260504210031 | 81 | 181 | 15.0 | 22.0 | 0.00 | 0.00 | 0.00 | 55 | 1007.1 |
| 20260504205502 | 81 | 185 | 13.0 | 21.0 | 0.00 | 0.00 | 0.00 | 55 | 1007.1 |
| 20260504205030 | 80 | 164 | 19.0 | 20.0 | 0.00 | 0.00 | 0.00 | 55 | 1007.2 |
| 20260504204500 | 80 | 188 | 14.0 | 23.0 | 0.00 | 0.00 | 0.00 | 55 | 1007.3 |
| 20260504204031 | 80 | 201 | 18.0 | 23.0 | 0.00 | 0.00 | 0.00 | 55 | 1007.5 |
| 20260504203500 | 80 | 197 | 15.0 | 23.0 | 0.00 | 0.00 | 0.00 | 56 | 1007.6 |
| 20260504202500 | 80 | 178 | 13.0 | 22.0 | 0.00 | 0.00 | 0.00 | 55 | 1007.9 |
| 20260504202000 | 80 | 209 | 18.0 | 22.0 | 0.00 | 0.00 | 0.00 | 55 | 1007.8 |
| 20260504201500 | 80 | 198 | 22.0 | 24.0 | 0.00 | 0.00 | 0.00 | 55 | 1007.8 |
| 20260504201030 | 80 | 173 | 12.0 | 24.0 | 0.00 | 0.00 | 0.00 | 55 | 1008.0 |
| 20260504200000 | 80 | 192 | 14.0 | 27.0 | 0.00 | 0.00 | 0.00 | 56 | 1008.1 |
| 20260504195500 | 79 | 209 | 21.0 | 24.0 | 0.00 | 0.00 | 0.00 | 56 | 1008.1 |
| 20260504195000 | 80 | 194 | 16.0 | 22.0 | 0.00 | 0.00 | 0.00 | 54 | 1008.5 |
| 20260504194000 | 79 | 221 | 22.0 | 23.0 | 0.00 | 0.00 | 0.00 | 56 | 1008.6 |
| 20260504193530 | 78 | 189 | 11.0 | 23.0 | 0.00 | 0.00 | 0.00 | 56 | 1008.7 |
| 20260504193030 | 79 | 212 | 15.0 | 28.0 | 0.00 | 0.00 | 0.00 | 56 | 1008.7 |
| 20260504192530 | 79 | 218 | 14.0 | 28.0 | 0.00 | 0.00 | 0.00 | 57 | 1009.0 |
| 20260504192000 | 78 | 199 | 12.0 | 21.0 | 0.00 | 0.00 | 0.00 | 56 | 1008.8 |
| 20260504191500 | 78 | 194 | 16.0 | 21.0 | 0.00 | 0.00 | 0.00 | 57 | 1008.8 |
| 20260504191030 | 78 | 192 | 10.0 | 25.0 | 0.00 | 0.00 | 0.00 | 58 | 1008.9 |
| 20260504190531 | 78 | 166 | 19.0 | 25.0 | 0.00 | 0.00 | 0.00 | 56 | 1009.0 |
| 20260504190001 | 77 | 165 | 13.0 | 20.0 | 0.00 | 0.00 | 0.00 | 58 | 1009.2 |
| 20260504185500 | 77 | 165 | 20.0 | 25.0 | 0.00 | 0.00 | 0.00 | 56 | 1009.3 |
| 20260504185030 | 78 | 186 | 11.0 | 30.0 | 0.00 | 0.00 | 0.00 | 58 | 1009.6 |
| 20260504184500 | 77 | 179 | 12.0 | 30.0 | 0.00 | 0.00 | 0.00 | 58 | 1009.4 |
| 20260504184000 | 77 | 184 | 16.0 | 22.0 | 0.00 | 0.00 | 0.00 | 56 | 1009.4 |
| 20260504183501 | 77 | 199 | 16.0 | 22.0 | 0.00 | 0.00 | 0.00 | 57 | 1009.6 |
| 20260504183001 | 77 | 170 | 10.0 | 27.0 | 0.00 | 0.00 | 0.00 | 58 | 1009.8 |
| 20260504182500 | 76 | 210 | 14.0 | 27.0 | 0.00 | 0.00 | 0.00 | 59 | 1009.8 |
| 20260504182000 | 77 | 206 | 15.0 | 26.0 | 0.00 | 0.00 | 0.00 | 58 | 1009.8 |
| 20260504181500 | 76 | 193 | 19.0 | 31.0 | 0.00 | 0.00 | 0.00 | 57 | 1009.9 |
| 20260504181002 | 76 | 220 | 29.0 | 31.0 | 0.00 | 0.00 | 0.00 | 58 | 1009.9 |
| 20260504180501 | 75 | 196 | 14.0 | 28.0 | 0.00 | 0.00 | 0.00 | 58 | 1010.1 |
| 20260504180000 | 75 | 203 | 14.0 | 25.0 | 0.00 | 0.00 | 0.00 | 60 | 1010.2 |
| 20260504175000 | 75 | 196 | 18.0 | 24.0 | 0.00 | 0.00 | 0.00 | 58 | 1010.4 |
| 20260504174501 | 75 | 197 | 15.0 | 24.0 | 0.00 | 0.00 | 0.00 | 59 | 1010.5 |
| 20260504173501 | 75 | 0 | 0.0 | 23.0 | 0.00 | 0.00 | 0.00 | 59 | 1010.4 |
| 20260504173000 | 75 | 185 | 14.0 | 20.0 | 0.00 | 0.00 | 0.00 | 61 | 1010.4 |
| 20260504172503 | 75 | 178 | 11.0 | 27.0 | 0.00 | 0.00 | 0.00 | 60 | 1010.6 |
| 20260504172000 | 74 | 202 | 13.0 | 27.0 | 0.00 | 0.00 | 0.00 | 60 | 1010.6 |
| 20260504171500 | 73 | 204 | 19.0 | 23.0 | 0.00 | 0.00 | 0.00 | 61 | 1010.7 |
| 20260504171000 | 73 | 212 | 19.0 | 23.0 | 0.00 | 0.00 | 0.00 | 62 | 1010.7 |
| 20260504170501 | 73 | 190 | 16.0 | 23.0 | 0.00 | 0.00 | 0.00 | 62 | 1010.8 |
| 20260504151030 | 70 | 210 | 21.0 | 25.0 | 0.00 | 0.00 | 0.00 | 62 | 1011.9 |
| 20260504150531 | 70 | 197 | 11.0 | 23.0 | 0.00 | 0.00 | 0.00 | 62 | 1012.0 |
| 20260504141000 | 67 | 202 | 11.0 | 21.0 | 0.00 | 0.00 | 0.00 | 70 | 1012.3 |
| 20260504140500 | 67 | 197 | 13.0 | 21.0 | 0.00 | 0.00 | 0.00 | 69 | 1012.2 |
| 20260504100501 | 62 | 186 | 4.0 | 13.0 | 0.00 | 0.00 | 0.00 | 70 | 1012.6 |
| 20260504081501 | 60 | 162 | 6.0 | 7.0 | 0.00 | 0.00 | 0.00 | 71 | 1013.2 |
| 20260504081001 | 60 | 186 | 6.0 | 6.0 | 0.00 | 0.00 | 0.00 | 71 | 1013.3 |
| 20260504080501 | 60 | 184 | 5.0 | 6.0 | 0.00 | 0.00 | 0.00 | 71 | 1013.3 |
| 20260504050502 | 63 | 196 | 4.0 | 6.0 | 0.00 | 0.00 | 0.00 | 61 | 1015.3 |
| 20260504050002 | 63 | 196 | 5.0 | 6.0 | 0.00 | 0.00 | 0.00 | 60 | 1015.3 |
| 20260504045002 | 63 | 196 | 4.0 | 7.0 | 0.00 | 0.00 | 0.00 | 60 | 1015.4 |
| 20260504044501 | 63 | 208 | 6.0 | 8.0 | 0.00 | 0.00 | 0.00 | 60 | 1015.4 |
| 20260504044001 | 64 | 213 | 6.0 | 8.0 | 0.00 | 0.00 | 0.00 | 59 | 1015.4 |
| 20260504043501 | 64 | 200 | 6.0 | 7.0 | 0.00 | 0.00 | 0.00 | 59 | 1015.5 |
| 20260504042501 | 64 | 204 | 5.0 | 6.0 | 0.00 | 0.00 | 0.00 | 58 | 1015.6 |
| 20260504042001 | 64 | 189 | 3.0 | 6.0 | 0.00 | 0.00 | 0.00 | 58 | 1015.6 |
| 20260504041001 | 64 | 203 | 4.0 | 6.0 | 0.00 | 0.00 | 0.00 | 57 | 1015.7 |
| 20260504040501 | 64 | 189 | 3.0 | 5.0 | 0.00 | 0.00 | 0.00 | 57 | 1015.7 |
| 20260504040031 | 65 | 195 | 3.0 | 7.0 | 0.00 | 0.00 | 0.00 | 56 | 1015.8 |